QB50P2

Last updated on Sun Jun 21 2026 00:03:50 GMT+0000 (Coordinated Universal Time)

1 40032U 14033Y 26170.93984048 .00006262 00000+0 33724-3 0 9998 2 40032 98.0755 167.9914 0008246 155.0319 205.1312 15.15188064653081
UTC large
Height (km)
Speed (km/s)
/
Latitude / Longitude
Inclination (degrees)
Orbital Period (minutes)
Azimuth
Elevation
Range (km)
Doppler Factor

Next 0 passes for location: London (51.5072 / 0.1276)

No passes found over London.
QB50P2